Location: Serin Observatory
(40.5200°N, 74.4500°W)
Time: 00:14:25
(UTC+00:00)

SL-8 R/B - Visible Passes

Search period start: 29 July 2016 00:00
Search period end: 08 August 2016 00:00
Orbit: 657 x 668 km, 48.4° (Epoch: 28 July)

Date Brightness Start Highest point End Pass type
(mag) Time Alt. Az. Time Alt. Az. Time Alt. Az.
29 Jul 4.8 00:48:32 10° W 00:53:13 48° NNW 00:57:53 10° NE visible
29 Jul 5.4 02:32:13 10° WNW 02:36:32 31° N 02:40:49 10° ENE visible
29 Jul 4.7 04:15:09 10° NW 04:19:10 45° N 04:19:10 45° N visible
30 Jul 5.3 01:20:19 10° WNW 01:24:44 34° N 01:29:09 10° ENE visible
30 Jul 5.1 03:03:43 10° NW 03:08:09 35° N 03:10:22 23° ENE visible
30 Jul 5.5 04:46:19 10° WNW 04:48:18 25° WNW 04:48:18 25° WNW visible
31 Jul 5.3 01:52:03 10° WNW 01:56:22 31° N 02:00:40 10° ENE visible
31 Jul 4.4 03:34:57 10° NW 03:39:34 51° NNE 03:39:34 51° NNE visible
01 Aug 5.3 00:40:10 10° WNW 00:44:35 34° N 00:48:58 10° ENE visible
01 Aug 5.0 02:23:31 10° NW 02:28:00 36° NNE 02:30:53 19° ENE visible
01 Aug 5.1 04:06:06 10° WNW 04:08:51 34° WNW 04:08:51 34° WNW visible
02 Aug 5.3 01:11:53 10° WNW 01:16:12 31° N 01:20:31 10° ENE visible
02 Aug 4.2 02:54:44 10° NW 02:59:28 53° NNE 03:00:12 48° NE visible
02 Aug 6.2 04:37:27 10° WNW 04:38:09 14° WNW 04:38:09 14° WNW visible
03 Aug 4.9 01:43:20 10° NW 01:47:49 37° NNE 01:51:36 14° ENE visible
03 Aug 4.3 03:25:54 10° WNW 03:29:34 52° WNW 03:29:34 52° WNW visible
04 Aug 4.2 02:14:32 10° NW 02:19:17 55° NNE 02:21:00 35° E visible
04 Aug 5.7 03:57:17 10° WNW 03:58:58 20° W 03:58:58 20° W visible
05 Aug 4.8 01:03:08 10° NW 01:07:39 38° NNE 01:12:08 10° E visible
05 Aug 3.6 02:45:42 10° WNW 02:50:27 80° SW 02:50:27 80° SW visible
06 Aug 4.1 01:34:20 10° NW 01:39:06 58° NNE 01:41:58 23° E visible
06 Aug 5.2 03:17:07 10° WNW 03:19:57 28° W 03:19:57 28° W visible
07 Aug 3.6 02:05:30 10° WNW 02:10:20 76° SSW 02:11:30 50° SE visible
